Location: Arbon
(43.0005°N, 0.7472°E)
Time: 21:01:29
(UTC+00:00)

Altair - Pass Details

Date: 05 December 2020
Orbit: 1501 x 1682 km, 47.2° (Epoch: 26 January)

Event Time Altitude Azimuth Distance (km) Brightness Sun altitude
Rises 15:39:29 0° 172° (S) 4,814 10.5 5.6°
Reaches altitude 10° 15:45:06 10° 146° (SSE) 3,790 9.6 4.8°
Maximum altitude 15:48:47 13° 123° (ESE) 3,543 9.2 4.3°
Drops below altitude 10° 15:52:26 10° 100° (E) 3,741 9.1 3.8°
Sets 15:57:50 0° 75° (ENE) 4,692 9.4 2.9°
